Hourly Data Report for October 22, 2016

All times are specified in Local Standard Time (LST). Add 1 hour to adjust for Daylight Saving Time where and when it is observed.

RANKIN INLET A
NUNAVUT

62°48'38.000" N
92°06'53.000" W
32.30 m
2303405
71083
YRT

Download Data

Hourly Data (October 2016)
Hourly Data Report for October 22, 2016
Temp Definition
°C
Dew Point Temp Definition
°C
Rel Hum Definition
%
Wind Dir Definition
10's deg

Wind Spd Definition
km/h
Visibility Definition
km
Stn Press Definition
kPa
Hmdx Definition


Wind Chill Definition


Weather Definition


TIME
00:00 Legend Double Dagger 0.2 -0.1 98 9 23 9.7 100.97     Snow,Blowing Snow
01:00 Legend Double Dagger 0.6 -0.1 95 12 19 9.7 101.00     Fog
02:00 Legend Double Dagger 1.1 -0.4 90 13 18 16.1 101.02     LegendNANA
03:00 Legend Double Dagger 1.1 -0.8 87 12 28 9.7 101.05     Snow
04:00 Legend Double Dagger 1.3 -1.3 83 11 28 16.1 101.07     LegendNANA
05:00 Legend Double Dagger 1.2 -0.6 88 12 29 16.1 101.11     LegendNANA
06:00 Legend Double Dagger 1.4 -0.4 88 11 30 16.1 101.15     Cloudy
07:00 Legend Double Dagger 1.1 -0.7 88 12 34 16.1 101.20     LegendNANA
08:00 Legend Double Dagger 1.6 -0.8 84 11 32 16.1 101.24     LegendNANA
09:00 Legend Double Dagger 1.2 -0.3 90 10 25 16.1 101.29     Cloudy
10:00 Legend Double Dagger 1.2 -0.1 91 10 27 16.1 101.36     LegendNANA
11:00 Legend Double Dagger 1.0 0.1 94 9 30 16.1 101.38     LegendNANA
12:00 Legend Double Dagger 1.1 0.1 93 10 33 16.1 101.40     Cloudy
13:00 Legend Double Dagger 1.1 0.1 93 9 29 16.1 101.41     LegendNANA
14:00 Legend Double Dagger 0.7 0.0 95 9 34 9.7 101.43     Snow Showers
15:00 Legend Double Dagger 0.5 -0.5 93 9 45 6.4 101.46     Snow Showers
16:00 Legend Double Dagger 0.8 -1.0 88 10 39 16.1 101.53     Snow Showers
17:00 Legend Double Dagger 0.6 -0.9 90 9 39 16.1 101.58     LegendNANA
18:00 Legend Double Dagger 0.8 -0.8 89 9 39 16.1 101.60     Cloudy
19:00 Legend Double Dagger 0.4 -0.6 93 8 39 12.9 101.64     Snow
20:00 Legend Double Dagger 0.5 -0.7 92 8 37 16.1 101.65     LegendNANA
21:00 Legend Double Dagger 0.4 -0.5 94 8 37 12.9 101.69     Snow
22:00 Legend Double Dagger 0.3 -0.3 96 9 35 12.9 101.70     Snow
23:00 Legend Double Dagger 0.6 -0.1 95 9 33 9.7 101.72     Snow

Notes on Data Quality.

Legend

  • E = Estimated
  • M = Missing
  • NA = Not Available
  • ‡ = Partner data that is not subject to review by the National Climate Archives
Date modified: